Home   Weather   Germany   Buxtehude   Past weeks
Flag for Germany

Past Weather in Buxtehude, Lower Saxony, Germany — Yesterday and Last 2 Weeks

Currently: 64 °F. Partly cloudy. (Weather station: Hamburg-Finkenwerder, Germany). See more current weather

Past Weather in Buxtehude — Graph

°F

Buxtehude Temperature Yesterday

Maximum temperature yesterday: 77 °F (at 3:20 pm)
Minimum temperature yesterday: 63 °F (at 2:50 am)
Average temperature yesterday: 69 °F

High & Low Weather Summary for the Past Weeks

 TemperatureHumidityPressure
High84 °F (Jul 14, 2:20 pm)100% (Jul 17, 2:50 am)30.21 "Hg (Jul 17, 2:50 am)
Low52 °F (Jul 20, 3:20 am)37% (Jul 24, 5:50 pm)29.71 "Hg (Jul 14, 1:50 pm)
Average68 °F74%29.98 "Hg
* Reported Jul 13 10:20 pm — Jul 28 10:20 pm, Buxtehude. Weather by CustomWeather, © 2021

Note: Actual official high and low records may vary slightly from our data, if they occured in-between our weather recording intervals... More about our weather records

Buxtehude Weather History for the Previous 24 Hours

Scroll right to see more
 ConditionsComfort  
Time TempWeatherWind HumidityBarometerVisibility
10:20 pm
Wed, Jul 28
66 °FPassing clouds.14 mph73%29.77 "HgN/A
9:50 pm70 °FPassing clouds.13 mph60%29.77 "HgN/A
9:20 pm70 °FPartly sunny.8 mph60%29.74 "HgN/A
8:50 pm70 °FOvercast.9 mph60%29.74 "HgN/A
8:20 pm72 °FPartly sunny.9 mph57%29.74 "HgN/A
7:50 pm72 °FPassing clouds.13 mph57%29.74 "HgN/A
7:20 pm73 °FScattered clouds.9 mph61%29.74 "HgN/A
6:50 pm73 °FPassing clouds.12 mph57%29.74 "HgN/A
6:20 pm73 °FScattered clouds.15 mph57%29.74 "HgN/A
5:50 pm73 °FScattered clouds.10 mph57%29.74 "HgN/A
5:20 pm72 °FPassing clouds.6 mph65%29.74 "HgN/A
4:50 pm72 °FPassing clouds.6 mph65%29.74 "HgN/A
4:20 pm70 °FScattered clouds.9 mph69%29.77 "HgN/A
3:50 pm68 °FThunderstorms. Broken clouds.18 mph78%29.77 "HgN/A
3:20 pm73 °FSprinkles. Partly sunny.10 mph61%29.77 "HgN/A
2:50 pm73 °FScattered clouds.13 mph57%29.77 "HgN/A
2:20 pm73 °FScattered clouds.13 mph57%29.77 "HgN/A
1:50 pm72 °FBroken clouds.10 mph61%29.77 "HgN/A
1:20 pm72 °FScattered clouds.10 mph61%29.77 "HgN/A
12:50 pm72 °FPassing clouds.12 mph61%29.77 "HgN/A
12:20 pm72 °FPartly sunny.9 mph65%29.77 "HgN/A
11:50 am70 °FPartly sunny.9 mph69%29.80 "HgN/A
11:20 am70 °FPartly sunny.12 mph64%29.80 "HgN/A
10:50 am68 °FPartly sunny.10 mph73%29.80 "HgN/A
10:20 am66 °FPartly sunny.9 mph78%29.80 "HgN/A
9:50 am66 °FPartly sunny.10 mph78%29.80 "HgN/A
9:20 am66 °FScattered clouds.9 mph78%29.80 "HgN/A
8:50 am64 °FPassing clouds.9 mph83%29.80 "HgN/A
8:20 am64 °FPassing clouds.8 mph83%29.80 "HgN/A
7:50 am63 °FPassing clouds.6 mph88%29.77 "HgN/A
7:20 am63 °FSunny.8 mph88%29.80 "Hg10 mi
6:50 am63 °FSunny.8 mph88%29.80 "Hg10 mi
6:20 am63 °FSunny.9 mph88%29.80 "Hg10 mi
5:50 am63 °FBroken clouds.7 mph88%29.80 "HgN/A
5:20 am63 °FMostly cloudy.5 mph88%29.80 "HgN/A
4:50 am63 °FOvercast.2 mph88%29.80 "HgN/A
4:20 am63 °FOvercast.3 mph88%29.80 "HgN/A
3:50 am63 °FMostly cloudy.3 mph88%29.80 "HgN/A
3:20 am63 °FMostly cloudy.5 mph88%29.80 "HgN/A
2:50 am63 °FOvercast.6 mph88%29.80 "HgN/A
2:20 am63 °FMostly cloudy.8 mph94%29.83 "HgN/A
1:50 am64 °FPassing clouds.8 mph88%29.83 "HgN/A
1:20 am64 °FPartly cloudy.5 mph88%29.83 "HgN/A
12:50 am64 °FOvercast.5 mph88%29.83 "HgN/A
12:20 am64 °FOvercast.2 mph88%29.83 "HgN/A
11:50 pm
Tue, Jul 27
66 °FOvercast.1 mph78%29.83 "HgN/A
11:20 pm66 °FPassing clouds.3 mph83%29.83 "HgN/A
Weather by CustomWeather, © 2021

See weather overview